This is the latest recevied weather packets stored in our database for station/object KD4KKF. If no packets are shown the sender has not sent any weather packets the latest 1 day(s).
| Time | Temp. | Humidity | Pressure | Rain* | Wind** | Luminosity | Snow |
|---|---|---|---|---|---|---|---|
| 1778037743 | 21.67° C | 81% | 1010.1 hPa | 0 mm | 0.45 m/s, 160° | 0 W/m² | - |
| 1778037440 | 21.67° C | 81% | 1009.9 hPa | 0 mm | 0 m/s | 0 W/m² | - |
| 1778037137 | 21.67° C | 81% | 1010.2 hPa | 0 mm | 0.45 m/s, 156° | 0 W/m² | - |
| 1778036836 | 21.67° C | 81% | 1010 hPa | 0 mm | 0.89 m/s, 173° | 0 W/m² | - |
| 1778036533 | 21.67° C | 81% | 1010 hPa | 0 mm | 0 m/s | 0 W/m² | - |
| 1778036229 | 21.67° C | 81% | 1009.8 hPa | 0 mm | 0.45 m/s, 165° | 0 W/m² | - |
| 1778035926 | 21.67° C | 81% | 1009.9 hPa | 0 mm | 0 m/s | 0 W/m² | - |
| 1778035623 | 21.67° C | 81% | 1009.7 hPa | 0 mm | 0.45 m/s, 198° | 0 W/m² | - |
| 1778035319 | 21.67° C | 81% | 1009.7 hPa | 0 mm | 0.89 m/s, 154° | 0 W/m² | - |
| 1778035015 | 21.67° C | 81% | 1009.5 hPa | 0 mm | 0.89 m/s, 193° | 0 W/m² | - |
| 1778034714 | 21.11° C | 81% | 1009.3 hPa | 0 mm | 0 m/s | 0 W/m² | - |
| 1778034410 | 21.11° C | 81% | 1009.5 hPa | 0 mm | 0 m/s | 0 W/m² | - |
| 1778034107 | 21.11° C | 81% | 1009.2 hPa | 0 mm | 0 m/s | 0 W/m² | - |
| 1778033805 | 21.67° C | 80% | 1009 hPa | 0 mm | 0.89 m/s, 138° | 0 W/m² | - |
| 1778033502 | 21.67° C | 80% | 1009.1 hPa | 0 mm | 1.79 m/s, 146° | 0 W/m² | - |
| 1778033199 | 21.67° C | 80% | 1009.2 hPa | 0 mm | 0.45 m/s, 140° | 0 W/m² | - |
| 1778032897 | 21.67° C | 80% | 1009.4 hPa | 0 mm | 0.45 m/s, 158° | 0 W/m² | - |
| 1778032594 | 21.11° C | 80% | 1009.2 hPa | 0 mm | 0.89 m/s, 239° | 0 W/m² | - |
| 1778032291 | 21.11° C | 81% | 1009.3 hPa | 0 mm | 0 m/s | 0 W/m² | - |
| 1778031989 | 21.67° C | 80% | 1009.2 hPa | 0 mm | 0.45 m/s, 138° | 0 W/m² | - |
| 1778031684 | 21.67° C | 80% | 1009.1 hPa | 0 mm | 0 m/s | 0 W/m² | - |
| 1778031383 | 21.67° C | 80% | 1009.2 hPa | 0 mm | 0 m/s | 0 W/m² | - |
| 1778031079 | 21.67° C | 80% | 1009.1 hPa | 0 mm | 0.45 m/s, 139° | 0 W/m² | - |
| 1778030775 | 21.67° C | 80% | 1009.2 hPa | 0 mm | 0 m/s | 0 W/m² | - |
| 1778030472 | 21.67° C | 80% | 1009.3 hPa | 0 mm | 0 m/s | 0 W/m² | - |
* Rain latest hour (hover to see other rain measurements)
** Current wind speed in m/s (hover to see current wind gust speed)